timestamp,wind_dir_avg,wind_spd_avg,wind_spd_max_dir,wind_spd_gust,battery_voltage,lat,long
2019-12-02 00:04:01+00:00,331.0,6.77,333.0,8.11,12.65,47.59359,-54.27349
2019-12-02 00:14:01+00:00,326.0,5.86,344.0,7.17,12.57,47.59359,-54.27349
2019-12-02 00:24:01+00:00,341.0,6.45,351.0,7.91,12.57,47.59359,-54.27349
2019-12-02 00:34:01+00:00,324.0,6.68,320.0,7.55,12.57,47.59359,-54.27349
2019-12-02 00:44:01+00:00,319.0,4.93,321.0,6.15,12.57,47.59359,-54.27349
2019-12-02 00:54:01+00:00,337.0,6.83,334.0,7.73,12.57,47.59359,-54.27349
2019-12-02 01:04:01+00:00,327.0,7.13,320.0,8.03,12.57,47.59359,-54.27349
2019-12-02 01:14:01+00:00,335.0,7.28,334.0,8.07,12.57,47.59359,-54.27349
2019-12-02 01:24:01+00:00,337.0,6.63,334.0,7.86,12.57,47.59359,-54.27349
2019-12-02 01:34:01+00:00,338.0,6.8,338.0,8.01,12.57,47.59359,-54.27349
2019-12-02 01:44:01+00:00,350.0,8.03,355.0,8.99,12.57,47.59359,-54.27349
2019-12-02 01:54:01+00:00,335.0,7.62,337.0,8.73,12.57,47.59359,-54.27349
2019-12-02 02:04:01+00:00,331.0,5.64,330.0,6.5,12.57,47.59359,-54.27349
2019-12-02 02:14:01+00:00,335.0,6.83,341.0,7.98,12.57,47.59359,-54.27349
2019-12-02 02:24:01+00:00,340.0,8.0,345.0,9.18,12.57,47.59359,-54.27349
2019-12-02 02:34:01+00:00,333.0,7.69,338.0,9.77,12.57,47.59359,-54.27349
2019-12-02 02:44:01+00:00,335.0,7.92,341.0,9.06,12.57,47.59359,-54.27349
2019-12-02 02:54:01+00:00,335.0,8.37,338.0,10.07,12.57,47.59359,-54.27349
2019-12-02 03:04:01+00:00,336.0,8.02,344.0,9.28,12.57,47.59359,-54.27349
2019-12-02 03:14:01+00:00,331.0,7.22,342.0,8.24,12.57,47.59359,-54.27349
2019-12-02 03:24:01+00:00,332.0,7.55,339.0,9.2,12.57,47.59359,-54.27349
2019-12-02 03:34:01+00:00,321.0,8.41,324.0,9.56,12.57,47.59359,-54.27349
2019-12-02 03:44:01+00:00,318.0,8.19,318.0,9.64,12.57,47.59359,-54.27349
2019-12-02 03:54:01+00:00,332.0,8.18,340.0,9.16,12.57,47.59359,-54.27349
2019-12-02 04:04:01+00:00,325.0,7.57,320.0,9.63,12.57,47.59359,-54.27349
2019-12-02 04:14:01+00:00,326.0,6.78,323.0,7.62,12.57,47.59359,-54.27349
2019-12-02 04:24:01+00:00,336.0,7.8,342.0,8.91,12.57,47.59359,-54.27349
2019-12-02 04:34:01+00:00,329.0,7.17,328.0,7.86,12.57,47.59359,-54.27349
2019-12-02 04:44:01+00:00,339.0,8.57,348.0,10.0,12.57,47.59359,-54.27349
2019-12-02 04:54:01+00:00,356.0,5.78,353.0,6.76,12.57,47.59359,-54.27349
2019-12-02 05:04:01+00:00,325.0,6.44,329.0,9.17,12.57,47.59359,-54.27349
2019-12-02 05:14:01+00:00,343.0,8.56,342.0,10.2,12.49,47.59359,-54.27349
2019-12-02 05:24:01+00:00,2.0,6.24,4.0,8.13,12.49,47.59359,-54.27349
2019-12-02 05:34:01+00:00,339.0,7.3,330.0,8.41,12.49,47.59359,-54.27349
2019-12-02 05:44:01+00:00,327.0,7.07,330.0,8.06,12.49,47.59359,-54.27349
2019-12-02 05:54:01+00:00,305.0,7.92,307.0,9.32,12.49,47.59359,-54.27349
2019-12-02 06:04:01+00:00,315.0,7.31,309.0,9.44,12.49,47.59359,-54.27349
2019-12-02 06:14:01+00:00,336.0,5.86,335.0,6.64,12.49,47.59359,-54.27349
2019-12-02 06:24:01+00:00,325.0,7.66,325.0,8.93,12.49,47.59359,-54.27349
2019-12-02 06:34:01+00:00,334.0,7.41,324.0,8.55,12.49,47.59359,-54.27349
2019-12-02 06:44:01+00:00,337.0,7.33,332.0,8.9,12.49,47.59359,-54.27349
2019-12-02 06:54:01+00:00,336.0,6.42,355.0,8.95,12.49,47.59359,-54.27349
2019-12-02 07:04:01+00:00,327.0,5.26,328.0,7.25,12.49,47.59359,-54.27349
2019-12-02 07:14:01+00:00,327.0,6.24,336.0,7.16,12.49,47.59359,-54.27349
2019-12-02 07:24:01+00:00,302.0,5.6,298.0,7.13,12.49,47.59359,-54.27349
2019-12-02 07:34:01+00:00,298.0,7.12,301.0,8.39,12.49,47.59359,-54.27349
2019-12-02 07:44:01+00:00,311.0,6.24,297.0,8.1,12.49,47.59359,-54.27349
2019-12-02 07:54:01+00:00,302.0,5.42,303.0,6.27,12.49,47.59359,-54.27349
2019-12-02 08:04:01+00:00,320.0,7.1,317.0,8.43,12.49,47.59359,-54.27349
2019-12-02 08:14:01+00:00,339.0,6.94,350.0,7.94,12.49,47.59359,-54.27349
2019-12-02 08:24:01+00:00,316.0,7.68,327.0,9.42,12.49,47.59359,-54.27349
2019-12-02 08:34:01+00:00,346.0,7.51,355.0,8.52,12.49,47.59359,-54.27349
2019-12-02 08:44:01+00:00,315.0,7.63,308.0,9.33,12.49,47.59359,-54.27349
2019-12-02 08:54:01+00:00,318.0,7.89,310.0,9.03,12.49,47.59359,-54.27349
2019-12-02 09:04:01+00:00,318.0,6.79,319.0,8.8,12.49,47.59359,-54.27349
2019-12-02 09:14:01+00:00,318.0,6.08,318.0,7.8,12.49,47.59359,-54.27349
2019-12-02 09:24:01+00:00,341.0,6.14,334.0,7.79,12.49,47.59359,-54.27349
2019-12-02 09:34:01+00:00,346.0,5.58,344.0,7.1,12.49,47.59359,-54.27349
2019-12-02 09:44:01+00:00,320.0,6.48,323.0,8.1,12.49,47.59359,-54.27349
2019-12-02 09:54:01+00:00,335.0,6.02,344.0,8.64,12.49,47.59359,-54.27349
2019-12-02 10:04:01+00:00,327.0,4.61,335.0,5.93,12.49,47.59359,-54.27349
2019-12-02 10:14:01+00:00,315.0,4.76,321.0,5.97,12.49,47.59359,-54.27349
2019-12-02 10:24:01+00:00,326.0,6.35,334.0,7.56,12.49,47.59359,-54.27349
2019-12-02 10:34:01+00:00,306.0,3.46,304.0,5.49,12.49,47.59359,-54.27349
2019-12-02 10:44:01+00:00,316.0,4.99,315.0,6.05,12.49,47.59359,-54.27349
2019-12-02 10:54:01+00:00,345.0,3.98,344.0,4.71,12.49,47.59359,-54.27349
2019-12-02 11:04:01+00:00,315.0,3.23,321.0,4.29,12.49,47.59359,-54.27349
2019-12-02 11:14:01+00:00,309.0,4.49,308.0,5.34,12.41,47.59359,-54.27349
2019-12-02 11:24:01+00:00,293.0,4.54,298.0,6.23,12.41,47.59359,-54.27349
2019-12-02 11:34:01+00:00,304.0,4.72,295.0,6.6,12.41,47.59359,-54.27349
2019-12-02 11:44:01+00:00,314.0,5.02,321.0,6.05,12.41,47.59359,-54.27349
2019-12-02 11:54:01+00:00,293.0,4.02,298.0,5.91,12.41,47.59359,-54.27349
2019-12-02 12:04:01+00:00,306.0,4.93,303.0,7.32,12.41,47.59359,-54.27349
2019-12-02 12:14:01+00:00,318.0,4.19,314.0,5.41,12.49,47.59359,-54.27349
2019-12-02 12:24:01+00:00,293.0,5.6,295.0,6.36,12.49,47.59359,-54.27349
2019-12-02 12:34:01+00:00,276.0,4.61,275.0,5.57,12.49,47.59359,-54.27349
2019-12-02 12:44:01+00:00,268.0,5.26,267.0,6.22,12.49,47.59359,-54.27349
2019-12-02 12:54:01+00:00,274.0,4.87,275.0,6.28,12.49,47.59359,-54.27349
2019-12-02 13:04:01+00:00,264.0,5.06,259.0,6.48,12.49,47.59359,-54.27349
2019-12-02 13:14:01+00:00,303.0,5.53,299.0,6.18,13.21,47.59359,-54.27349
2019-12-02 13:24:01+00:00,262.0,6.43,252.0,7.38,13.21,47.59359,-54.27349
2019-12-02 13:34:01+00:00,263.0,5.52,260.0,6.72,13.21,47.59359,-54.27349
2019-12-02 13:44:01+00:00,289.0,6.47,296.0,7.28,13.21,47.59359,-54.27349
2019-12-02 13:54:01+00:00,272.0,3.08,262.0,4.3,13.21,47.59359,-54.27349
2019-12-02 14:04:01+00:00,301.0,6.49,308.0,7.24,13.21,47.59359,-54.27349
2019-12-02 14:14:01+00:00,328.0,3.6,323.0,4.91,13.76,47.59359,-54.27349
2019-12-02 14:24:01+00:00,297.0,4.01,304.0,4.57,13.76,47.59359,-54.27349
2019-12-02 14:34:01+00:00,300.0,3.59,309.0,4.36,13.76,47.59359,-54.27349
2019-12-02 14:44:01+00:00,316.0,4.71,325.0,5.76,13.76,47.59359,-54.27349
2019-12-02 14:54:01+00:00,321.0,6.48,327.0,7.15,13.76,47.59359,-54.27349
2019-12-02 15:04:01+00:00,284.0,6.21,285.0,7.29,13.76,47.59359,-54.27349
2019-12-02 15:14:01+00:00,287.0,5.23,283.0,6.45,13.76,47.59359,-54.27349
2019-12-02 15:24:01+00:00,264.0,4.26,269.0,5.32,13.76,47.59359,-54.27349
2019-12-02 15:34:01+00:00,300.0,2.56,304.0,3.53,13.76,47.59359,-54.27349
2019-12-02 15:44:01+00:00,262.0,4.5,264.0,5.48,13.76,47.59359,-54.27349
2019-12-02 15:54:01+00:00,299.0,3.49,303.0,4.34,13.76,47.59359,-54.27349
2019-12-02 16:04:01+00:00,309.0,3.66,309.0,4.24,13.76,47.59359,-54.27349
2019-12-02 16:14:01+00:00,267.0,5.55,267.0,6.04,13.84,47.59359,-54.27349
2019-12-02 16:24:01+00:00,257.0,2.99,257.0,3.78,13.84,47.59359,-54.27349
2019-12-02 16:34:01+00:00,269.0,3.52,277.0,4.21,13.84,47.59359,-54.27349
2019-12-02 16:44:01+00:00,282.0,5.42,279.0,7.12,13.84,47.59359,-54.27349
2019-12-02 16:54:01+00:00,233.0,3.45,236.0,3.95,13.84,47.59359,-54.27349
2019-12-02 17:04:01+00:00,286.0,2.68,276.0,3.33,13.84,47.59359,-54.27349
2019-12-02 17:14:01+00:00,272.0,5.57,261.0,6.32,14.08,47.59359,-54.27349
2019-12-02 17:24:01+00:00,261.0,4.73,259.0,5.52,14.08,47.59359,-54.27349
2019-12-02 17:34:01+00:00,273.0,3.8,267.0,5.0,14.08,47.59359,-54.27349
2019-12-02 17:44:01+00:00,257.0,3.61,266.0,6.07,14.08,47.59359,-54.27349
2019-12-02 17:54:01+00:00,239.0,4.75,242.0,5.61,14.08,47.59359,-54.27349
2019-12-02 18:04:01+00:00,267.0,4.13,263.0,5.09,14.08,47.59359,-54.27349
2019-12-02 18:14:01+00:00,250.0,5.2,264.0,7.72,13.37,47.59359,-54.27349
2019-12-02 18:24:01+00:00,270.0,5.64,267.0,6.96,13.37,47.59359,-54.27349
2019-12-02 18:34:01+00:00,279.0,7.55,277.0,8.24,13.37,47.59359,-54.27349
2019-12-02 18:44:01+00:00,265.0,6.28,257.0,8.43,13.37,47.59359,-54.27349
2019-12-02 18:54:01+00:00,270.0,5.06,265.0,6.1,13.37,47.59359,-54.27349
2019-12-02 19:04:01+00:00,285.0,6.12,281.0,7.32,13.37,47.59359,-54.27349
2019-12-02 19:14:01+00:00,281.0,6.1,293.0,6.84,13.05,47.59359,-54.27349
2019-12-02 19:24:01+00:00,272.0,6.27,274.0,7.29,13.05,47.59359,-54.27349
2019-12-02 19:34:01+00:00,277.0,7.57,280.0,8.59,13.05,47.59359,-54.27349
2019-12-02 19:44:01+00:00,263.0,5.71,262.0,6.28,13.05,47.59359,-54.27349
2019-12-02 19:54:01+00:00,262.0,7.31,269.0,8.18,13.05,47.59359,-54.27349
2019-12-02 20:04:01+00:00,273.0,6.62,276.0,7.4,13.05,47.59359,-54.27349
2019-12-02 20:14:01+00:00,282.0,7.43,277.0,9.44,12.73,47.59359,-54.27349
2019-12-02 20:24:01+00:00,275.0,7.14,277.0,8.09,12.73,47.59359,-54.27349
2019-12-02 20:34:01+00:00,289.0,8.11,286.0,9.44,12.73,47.59359,-54.27349
2019-12-02 20:44:01+00:00,279.0,7.88,280.0,8.8,12.73,47.59359,-54.27349
2019-12-02 20:54:01+00:00,283.0,7.99,278.0,8.92,12.73,47.59359,-54.27349
2019-12-02 21:04:01+00:00,287.0,7.58,295.0,9.29,12.73,47.59359,-54.27349
2019-12-02 21:14:01+00:00,275.0,6.39,272.0,10.75,12.65,47.59359,-54.27349
2019-12-02 21:24:01+00:00,294.0,6.56,288.0,8.13,12.65,47.59359,-54.27349
2019-12-02 21:34:01+00:00,296.0,7.29,300.0,8.49,12.65,47.59359,-54.27349
2019-12-02 21:44:01+00:00,277.0,6.06,275.0,6.98,12.65,47.59359,-54.27349
2019-12-02 21:54:01+00:00,278.0,6.31,278.0,7.35,12.65,47.59359,-54.27349
2019-12-02 22:04:01+00:00,289.0,5.82,282.0,6.7,12.65,47.59359,-54.27349
2019-12-02 22:14:01+00:00,285.0,6.89,283.0,8.73,12.65,47.59359,-54.27349
2019-12-02 22:24:01+00:00,266.0,7.54,265.0,8.45,12.65,47.59359,-54.27349
2019-12-02 22:34:01+00:00,289.0,6.03,288.0,7.54,12.65,47.59359,-54.27349
2019-12-02 22:44:01+00:00,289.0,5.93,285.0,7.59,12.65,47.59359,-54.27349
2019-12-02 22:54:01+00:00,289.0,4.21,288.0,4.86,12.65,47.59359,-54.27349
2019-12-02 23:04:01+00:00,265.0,6.2,267.0,7.35,12.65,47.59359,-54.27349
2019-12-02 23:14:01+00:00,264.0,4.7,260.0,5.65,12.65,47.59359,-54.27349
2019-12-02 23:24:01+00:00,257.0,3.48,254.0,4.35,12.65,47.59359,-54.27349
2019-12-02 23:34:01+00:00,268.0,4.58,272.0,5.26,12.65,47.59359,-54.27349
2019-12-02 23:44:01+00:00,291.0,4.08,287.0,4.85,12.65,47.59359,-54.27349
2019-12-02 23:54:01+00:00,280.0,3.51,284.0,4.6,12.65,47.59359,-54.27349
